EZY76YF EGCC-LIPZ

Flight info

Callsign EZY76YF
Flight time N/A
Altitude 35000
Route SANBA N859 HON L15 FINMA DCT CHT DCT ITVIP DCT KONAN DCT KOK UL607 FERDI DCT REMBA DCT RITAX M624 DIK N852 SUTAL DCT GTQ DCT DEVDI DCT RIPUS DCT RESIA DCT ADOSA/N0340F190 L612 ALBET
Aircraft A21N/M-SDE2E3FGHIJ1RWXY/LB1

Departure

Time N/A
Airport Manchester Airport (EGCC)

Arrival

Time 2026-04-27 11:02
Airport Venice Marco Polo Airport (LIPZ)
Time Latitude Longitude Altitude Speed Heading
2026-04-27 10:33 46.76470 9.48787 35190 ft 456 kts 126°
2026-04-27 10:33 46.74580 9.52487 35200 ft 456 kts 126°
2026-04-27 10:33 46.70778 9.59906 35206 ft 456 kts 126°
2026-04-27 10:34 46.66979 9.67311 35223 ft 456 kts 126°
2026-04-27 10:34 46.63196 9.74659 35219 ft 456 kts 126°
2026-04-27 10:35 46.59385 9.82041 35232 ft 456 kts 126°
2026-04-27 10:35 46.55567 9.89416 35232 ft 456 kts 126°
2026-04-27 10:36 46.51757 9.96773 35240 ft 456 kts 126°
2026-04-27 10:36 46.47852 10.04055 35234 ft 457 kts 132°
2026-04-27 10:37 46.43097 10.10124 35091 ft 451 kts 141°
2026-04-27 10:37 46.40709 10.12929 34801 ft 444 kts 141°
2026-04-27 10:37 46.38324 10.15754 34549 ft 441 kts 140°
2026-04-27 10:38 46.35959 10.18569 34303 ft 439 kts 140°
2026-04-27 10:38 46.33604 10.21379 34034 ft 437 kts 140°
2026-04-27 10:38 46.31269 10.24168 33758 ft 435 kts 140°
2026-04-27 10:38 46.28937 10.26951 33483 ft 433 kts 140°
2026-04-27 10:39 46.26621 10.29712 33213 ft 431 kts 140°
2026-04-27 10:39 46.24303 10.32470 32943 ft 430 kts 140°
2026-04-27 10:39 46.21999 10.35207 32660 ft 428 kts 141°
2026-04-27 10:39 46.19701 10.37935 32234 ft 425 kts 140°
2026-04-27 10:40 46.17427 10.40636 31750 ft 424 kts 141°
2026-04-27 10:40 46.15150 10.43334 31228 ft 423 kts 140°
2026-04-27 10:40 46.12903 10.45991 30732 ft 422 kts 140°
2026-04-27 10:40 46.10636 10.48669 30246 ft 420 kts 140°
2026-04-27 10:41 46.08370 10.51346 29648 ft 419 kts 141°
2026-04-27 10:41 46.06117 10.53999 29119 ft 417 kts 140°
2026-04-27 10:41 46.03877 10.56634 28613 ft 415 kts 140°
2026-04-27 10:41 46.01646 10.59262 28117 ft 412 kts 140°
2026-04-27 10:42 45.99436 10.61864 27632 ft 409 kts 141°
2026-04-27 10:42 45.97238 10.64445 27139 ft 406 kts 141°
2026-04-27 10:42 45.95057 10.67003 26666 ft 404 kts 141°
2026-04-27 10:42 45.92912 10.69516 26188 ft 402 kts 141°
2026-04-27 10:43 45.90745 10.72053 25724 ft 400 kts 141°
2026-04-27 10:43 45.88584 10.74578 25258 ft 398 kts 141°
2026-04-27 10:43 45.86434 10.77091 24769 ft 398 kts 141°
2026-04-27 10:43 45.84285 10.79599 24262 ft 396 kts 141°
2026-04-27 10:44 45.82153 10.82085 23782 ft 393 kts 141°
2026-04-27 10:44 45.80042 10.84540 23225 ft 389 kts 141°
2026-04-27 10:44 45.77970 10.86950 22728 ft 386 kts 141°
2026-04-27 10:44 45.75900 10.89357 22229 ft 382 kts 141°
2026-04-27 10:45 45.73852 10.91736 21750 ft 378 kts 141°
2026-04-27 10:45 45.71820 10.94092 21258 ft 374 kts 141°
2026-04-27 10:45 45.69804 10.96427 20790 ft 371 kts 141°
2026-04-27 10:45 45.67809 10.98738 20351 ft 367 kts 141°
2026-04-27 10:46 45.65832 11.01025 19925 ft 363 kts 141°
2026-04-27 10:46 45.64027 11.03520 19489 ft 359 kts 127°
2026-04-27 10:46 45.62636 11.06458 19062 ft 355 kts 121°
2026-04-27 10:46 45.61326 11.09442 18669 ft 352 kts 121°
2026-04-27 10:47 45.60033 11.12381 18260 ft 348 kts 121°
2026-04-27 10:47 45.58756 11.15254 17837 ft 345 kts 121°
2026-04-27 10:47 45.57456 11.18166 17097 ft 350 kts 122°
2026-04-27 10:47 45.56132 11.21119 16451 ft 354 kts 122°
2026-04-27 10:48 45.54802 11.24075 15972 ft 351 kts 122°
2026-04-27 10:48 45.53484 11.27001 15398 ft 349 kts 122°
2026-04-27 10:48 45.52179 11.29893 14901 ft 344 kts 122°
2026-04-27 10:48 45.50886 11.32758 14330 ft 343 kts 122°
2026-04-27 10:49 45.49600 11.35606 13764 ft 340 kts 123°
2026-04-27 10:49 45.48320 11.38434 13163 ft 338 kts 123°
2026-04-27 10:49 45.47052 11.41233 12653 ft 333 kts 123°
2026-04-27 10:49 45.45814 11.43964 12162 ft 330 kts 123°
2026-04-27 10:50 45.44582 11.46680 11745 ft 323 kts 123°
2026-04-27 10:50 45.43372 11.49346 11336 ft 318 kts 123°
2026-04-27 10:50 45.42081 11.51860 10989 ft 312 kts 131°
2026-04-27 10:50 45.40652 11.54158 10724 ft 307 kts 133°
2026-04-27 10:51 45.39234 11.56384 10468 ft 301 kts 133°
2026-04-27 10:51 45.37834 11.58583 10198 ft 299 kts 133°
2026-04-27 10:51 45.36438 11.60780 9882 ft 299 kts 133°
2026-04-27 10:51 45.35111 11.63014 9533 ft 299 kts 124°
2026-04-27 10:52 45.34338 11.65761 9174 ft 297 kts 97°
2026-04-27 10:52 45.34332 11.68655 8866 ft 297 kts 85°
2026-04-27 10:52 45.34503 11.71567 8563 ft 294 kts 84°
2026-04-27 10:52 45.34668 11.74440 8233 ft 290 kts 85°
2026-04-27 10:53 45.34756 11.77311 7784 ft 293 kts 95°
2026-04-27 10:53 45.33574 11.82829 7070 ft 288 kts 110°
2026-04-27 10:53 45.32889 11.85500 6701 ft 287 kts 110°
2026-04-27 10:54 45.32224 11.88147 6333 ft 287 kts 109°
2026-04-27 10:54 45.31563 11.90811 5952 ft 286 kts 109°
2026-04-27 10:54 45.30909 11.93471 5645 ft 282 kts 109°
2026-04-27 10:54 45.30278 11.96064 5484 ft 273 kts 109°
2026-04-27 10:55 45.29672 11.98564 5337 ft 263 kts 109°
2026-04-27 10:55 45.29086 12.00966 5214 ft 252 kts 109°
2026-04-27 10:55 45.28522 12.03275 5059 ft 243 kts 108°
2026-04-27 10:55 45.28273 12.05605 4861 ft 240 kts 81°
2026-04-27 10:56 45.28912 12.07739 4665 ft 236 kts 48°
2026-04-27 10:56 45.30095 12.09342 4380 ft 235 kts 39°
2026-04-27 10:56 45.31341 12.10847 4098 ft 234 kts 39°
2026-04-27 10:56 45.32561 12.12323 4006 ft 233 kts 39°
2026-04-27 10:57 45.33807 12.13788 3951 ft 224 kts 40°
2026-04-27 10:57 45.34937 12.15216 3753 ft 216 kts 41°
2026-04-27 10:57 45.36037 12.16619 3491 ft 210 kts 41°
2026-04-27 10:57 45.37115 12.17998 3220 ft 206 kts 42°
2026-04-27 10:58 45.38149 12.19322 3008 ft 195 kts 42°
2026-04-27 10:58 45.39125 12.20574 2755 ft 183 kts 42°
2026-04-27 10:58 45.40049 12.21758 2488 ft 174 kts 43°
2026-04-27 10:58 45.40924 12.22881 2236 ft 165 kts 43°
2026-04-27 10:59 45.41754 12.23945 2007 ft 159 kts 44°
2026-04-27 10:59 45.42573 12.24998 1819 ft 159 kts 44°
2026-04-27 10:59 45.43392 12.26048 1627 ft 158 kts 45°
2026-04-27 11:00 45.44891 12.27974 1211 ft 138 kts 45°
2026-04-27 11:00 45.45607 12.28894 1020 ft 138 kts 45°
2026-04-27 11:00 45.46303 12.29793 852 ft 137 kts 45°
2026-04-27 11:00 45.47007 12.30693 672 ft 136 kts 44°
2026-04-27 11:01 45.47708 12.31587 494 ft 133 kts 45°
2026-04-27 11:01 45.48389 12.32462 296 ft 131 kts 44°
2026-04-27 11:01 45.49070 12.33334 151 ft 132 kts 45°
2026-04-27 11:01 45.49754 12.34212 27 ft 129 kts 46°
2026-04-27 11:02 45.50336 12.34958 19 ft 85 kts 44°
2026-04-27 11:02 45.50624 12.35333 20 ft 27 kts 32°
2026-04-27 11:02 45.50755 12.35409 21 ft 20 kts 19°
2026-04-27 11:02 45.50865 12.35449 21 ft 13 kts
2026-04-27 11:03 45.50950 12.35455 22 ft 13 kts 346°
2026-04-27 11:03 45.50981 12.35342 23 ft 15 kts 259°
2026-04-27 11:03 45.50949 12.35209 22 ft 13 kts 226°
2026-04-27 11:03 45.50881 12.35110 22 ft 15 kts 226°
2026-04-27 11:04 45.50803 12.35000 21 ft 17 kts 223°
2026-04-27 11:04 45.50710 12.34884 21 ft 18 kts 220°
2026-04-27 11:04 45.50626 12.34781 21 ft 15 kts 221°
2026-04-27 11:04 45.50543 12.34675 22 ft 16 kts 222°
2026-04-27 11:05 45.50461 12.34570 21 ft 16 kts 222°
2026-04-27 11:05 45.50373 12.34457 22 ft 17 kts 222°
2026-04-27 11:05 45.50297 12.34361 22 ft 11 kts 223°
2026-04-27 11:05 45.50256 12.34306 21 ft 6 kts 223°
2026-04-27 11:06 45.50254 12.34260 21 ft 6 kts 305°
2026-04-27 11:06 45.50285 12.34206 21 ft 8 kts 313°
2026-04-27 11:06 45.50303 12.34178 21 ft 1 kts 312°
2026-04-27 11:06 45.50304 12.34176 21 ft 0 kts 312°
2026-04-27 11:28 45.50304 12.34177 21 ft 0 kts 312°